#timestamp,LO_Frequency,Hit,StdDev 
1647633615.7,286047000.5,N
1647633635.6,286047001.2,N
1647633655.4,286047000.7,N
1647633675.2,286046998.3,N
1647633695.1,286047000.1,N
1647633696.0,286047000.1,N
1647633715.8,286047001.1,N
1647633735.6,286046998.4,N
1647633755.5,286046998.5,N
1647633775.3,286046998.3,N
1647633795.2,286046999.5,N
1647633815.9,286046997.4,N
1647633835.7,286046997.9,N
1647633855.6,286046997.1,N
1647633875.4,286046996.4,N
1647633895.2,286046993.3,Y
1647633915.1,286046997.6,P
1647633916.0,286046997.6,N
1647633935.8,286046996.8,P
1647633955.7,286046999.2,N
1647633975.5,286046998.2,N
1647633995.3,286046997.3,N
1647634015.2,286046998.0,N
1647634035.0,286046997.0,Y
1647634035.9,286046997.0,P
1647634055.8,286046998.3,P
1647634075.6,286047000.5,N
1647634095.4,286047001.1,N
1647634115.3,286046998.4,N
1647634135.1,286047000.5,N
1647634155.9,286047002.0,N
1647634175.7,286047001.3,N
1647634195.5,286047000.2,N
1647634215.4,286047000.9,N
1647634235.2,286046998.5,N
1647634255.1,286047000.4,N
1647634256.0,286047000.4,N
1647634275.8,286047000.1,N
1647634295.6,286047001.8,N
1647634315.5,286047002.2,N
1647634335.3,286047004.3,N
1647634355.1,286047003.8,N
1647634375.9,286047001.5,N
1647634395.7,286047002.6,N
1647634415.6,286047001.8,N
1647634435.4,286047001.7,N
1647634455.2,286047003.9,N
1647634475.1,286047003.6,N
1647634476.0,286047003.6,N
1647634495.8,286047002.9,N
1647634515.6,286047004.9,N
1647634535.5,286047007.5,Y
1647634555.3,286047003.5,P
1647634575.2,286047001.5,N
1647634595.9,286047000.6,N
1647634615.7,286047000.9,N
1647634635.6,286046998.3,N
1647634655.4,286047000.5,N
1647634675.3,286046998.1,N
1647634695.1,286046999.0,N
1647634696.0,286046999.0,N
1647634715.8,286047000.9,N
1647634735.7,286047000.8,N
1647634755.5,286047000.0,N
1647634775.3,286047003.7,N
1647634795.2,286047011.9,Y
1647634815.0,286047001.3,P
1647634815.9,286047001.3,P
1647634835.8,286047004.2,P
1647634855.6,286047002.7,N
1647634875.4,286047000.5,N
1647634895.3,286047002.8,N
1647634915.1,286047000.4,N
1647634935.9,286047002.1,N
1647634955.7,286047001.7,N
1647634975.5,286047002.9,N
1647634995.4,286047003.9,Y
1647635015.2,286046998.8,P
1647635035.0,286046996.6,N
1647635035.9,286046996.6,N
1647635055.8,286046999.5,N
1647635075.6,286046997.1,N
1647635095.5,286046998.7,N
1647635115.3,286046999.7,N
1647635135.1,286046999.9,N
1647635155.9,286046999.7,N
1647635175.7,286046998.6,N
1647635195.5,286046998.3,N
1647635215.4,286046999.2,N
1647635235.2,286046999.3,N
1647635255.1,286046996.8,N
1647635256.0,286046996.8,N
1647635275.8,286046998.7,N
1647635295.6,286046998.6,N
1647635315.5,286046998.6,N
1647635335.3,286046998.4,N
1647635355.2,286046998.3,N
1647635375.9,286046999.5,N
1647635395.7,286046999.6,N
1647635415.6,286046998.6,N
1647635435.4,286046998.1,N
1647635455.2,286047000.6,N
1647635475.1,286046999.3,N
1647635476.0,286046999.3,N
1647635495.8,286047001.1,N
1647635515.7,286047002.3,N
1647635535.5,286047004.0,N
1647635555.3,286047004.4,N
1647635575.2,286047002.2,N
1647635595.0,286047002.2,N
1647635595.9,286047002.2,N
1647635615.8,286047002.3,N
1647635635.6,286047000.5,N
1647635655.4,286047002.5,N
1647635675.3,286047000.4,N
1647635695.1,286047002.5,N
1647635715.8,286047000.0,N
1647635735.7,286047001.2,N
1647635755.5,286046998.4,N
1647635775.4,286046997.1,N
1647635795.2,286046996.8,N
1647635815.0,286046998.8,N
1647635815.9,286046998.8,N
1647635835.8,286046996.5,N
1647635855.6,286046997.2,N
1647635875.4,286046997.5,N
1647635895.3,286046997.4,N
1647635915.1,286046996.7,N
1647635935.9,286046999.4,N
1647635955.7,286047001.1,N
1647635975.5,286046998.6,N
1647635995.4,286046996.6,N
1647636015.2,286046997.0,N
1647636035.0,286047001.2,N
1647636036.0,286047001.2,N
1647636055.8,286046999.1,N
1647636075.6,286046997.0,N
1647636095.5,286046997.5,N
1647636115.3,286046997.3,N
1647636135.1,286046998.2,N
1647636155.9,286046999.5,N
1647636175.7,286046997.2,N
1647636195.6,286046996.7,N
1647636215.4,286046999.1,N
1647636235.2,286046999.3,N
1647636255.1,286046999.7,N
1647636256.0,286046999.7,N
1647636275.8,286047004.3,N
1647636295.7,286047000.7,N
1647636315.5,286047002.1,N
1647636335.3,286047001.0,N
1647636355.2,286047000.7,N
1647636375.0,286047000.6,N
1647636375.9,286047000.6,N
1647636395.7,286047002.8,N
1647636415.6,286047002.4,N
1647636435.4,286046998.6,N
1647636455.3,286046996.7,N
1647636475.1,286046997.4,N
1647636495.8,286046997.0,N
1647636515.7,286046997.0,N
1647636535.5,286046996.6,N
1647636555.4,286046999.3,N
1647636575.2,286046997.7,N
1647636595.0,286046997.0,N
1647636595.9,286046997.0,N
1647636615.8,286046997.2,N
1647636635.6,286046998.9,N
1647636655.4,286047000.9,N
1647636675.3,286046999.9,N
1647636695.1,286046998.2,N
1647636715.9,286047000.1,N
1647636735.7,286047002.0,N
1647636755.5,286047002.0,N
1647636775.4,286047002.0,N
1647636795.2,286047004.4,N
1647636815.1,286047002.0,N
1647636816.0,286047002.0,N
1647636835.8,286047000.0,N
1647636855.6,286046999.8,N
1647636875.5,286047002.6,N
1647636895.3,286047000.9,N
1647636915.2,286047001.0,N
1647636935.9,286046998.6,N
1647636955.7,286047001.1,N
1647636975.6,286047000.9,N
1647636995.4,286046999.3,N
1647637015.2,286046997.4,N
1647637035.1,286046996.8,N
1647637036.0,286046996.8,N
1647637055.8,286046998.5,N
1647637075.7,286046999.4,N
1647637095.5,286046999.0,N
1647637115.3,286046999.4,N
1647637135.2,286046999.0,N
1647637155.0,286046999.1,N
1647637155.9,286046999.1,N
1647637175.7,286046998.9,N
1647637195.6,286046996.6,N
